{"data":{"norad_id":51959,"epoch":"2026-05-25T03:20:30.646176Z","epoch_age_seconds":67021,"freshness":"FRESH","line1":"1 51959U 22025D   26145.13924359  .00002188  00000+0  82264-4 0  9998","line2":"2 51959  53.1612  41.8711 0001176 100.6399 259.4735 15.31692430232538","mean_motion":15.3169243,"eccentricity":0.0001176,"inclination_deg":53.1612,"raan_deg":41.8711,"arg_perigee_deg":100.6399,"mean_anomaly_deg":259.4735,"bstar":8.2264e-5,"rev_number":23253,"period_min":94.013652597343,"perigee_km":469.95713050629,"apogee_km":471.56799168306,"semimajor_km":6848.8995610947,"source":"CELESTRAK","updated_at":"2026-05-25T13:38:16.991351Z"}}